[[[{"header":{"parameterUnit":"kt","parameterCategory":2,"dx":1,"dy":1,"la1":30.253999710083008,"la2":30.299108505249023,"lo1":-89.0895004272461,"lo2":-89.04439544677734,"nx":28,"ny":28,"refTime":"2022-10-17T21:00:00:Z","depth":0,"parameterNumber":1,"parameterNumberName":"U-component_of_WINDS"},"data":[-5.1043,-5.1197,-5.1188,-5.1359,-5.138,-5.1496,-5.1534,-5.1583,-5.162,-5.1757,-5.1834,-5.184,-5.1873,-5.1964,-5.2047,-5.2048,-5.2087,-5.2147,-5.2139,-5.1872,-5.1835,-5.18,-5.1764,-5.2154,-5.2155,-5.2419,-5.2421,-5.2423,-5.085,-5.0873,-5.0959,-5.1038,-5.1113,-5.1049,-5.1106,-5.1174,-5.1279,-5.1324,-5.1399,-5.1519,-5.1612,-5.1625,-5.1714,-5.1786,-5.1762,-5.1811,-5.1809,-5.1816,-5.1529,-5.1491,-5.1829,-5.1829,-5.1829,-5.1829,-5.1829,-5.1829,-5.0497,-5.0589,-5.0631,-5.0725,-5.0762,-5.0814,-5.0901,-5.0906,-5.0991,-5.1082,-5.1053,-5.1172,-5.1217,-5.1318,-5.135,-5.1443,-5.1387,-5.1439,-5.1453,-5.1468,-5.1487,-5.1114,-5.1456,-5.1455,-5.1454,-5.1454,-5.1453,0,-5.0237,-5.0223,-5.0305,-5.0386,-5.0454,-5.0515,-5.0569,-5.0622,-5.0589,-5.0661,-5.0764,-5.0822,-5.0937,-5.1034,-5.1114,-5.1136,-5.1081,-5.1071,-5.1108,-5.1128,-5.1134,-5.1138,-5.0675,-5.1063,-5.106,-5.1057,-5.1055,-5.1054,-4.9884,-4.9991,-5.0029,-5.0088,-5.0116,-5.0211,-5.0267,-5.0229,-5.029,-5.0351,-5.0434,-5.0529,-5.0605,-5.0772,-5.0778,-5.0864,-5.0838,-5.0988,-5.0851,-5.0864,-5.0847,-5.0844,-5.0856,-5.1018,-5.1022,-5.1026,-5.1029,0,-4.9688,-4.9671,-4.9833,-4.986,-4.987,-4.9984,-5.0008,-5.0097,-5.0092,-5.0215,-5.0241,-5.0235,-5.0337,-5.0318,-5.043,-5.0418,-5.061,-5.0579,-5.0595,-5.059,-5.0726,-5.0716,-5.1161,-5.1219,-5.0808,-5.0812,-5.0816,0,-4.9383,-4.9524,-4.9491,-4.9586,-4.9742,-4.97,-4.9855,-4.9866,-4.9902,-4.9999,-4.9929,-5.0021,-4.9982,-5.0072,-5.0053,-5.0205,-5.0225,-5.0226,-5.0221,-5.0236,-5.0237,-5.0272,-5.0256,-5.0197,-5.0195,-5.0193,-5.0191,0,-4.9081,-4.9227,-4.938,-4.9411,-4.9454,-4.9527,-4.9549,-4.9588,-4.9643,-4.971,-4.9745,-4.9826,-4.9872,-4.9937,-4.9913,-4.9821,-5.0097,-4.9966,-5.0099,-5.01,-5.0165,-5.0163,-5.0557,-5.0188,-5.0188,-5.0187,-5.0186,0,-4.8834,-4.8902,-4.9125,-4.916,-4.92,-4.93,-4.9377,-4.9458,-4.9505,-4.95,-4.9552,-4.9505,-4.9633,-4.9505,-4.9682,-4.957,-4.9619,-4.963,-4.9639,-4.9655,-4.9514,-4.9746,-5.0118,-5.0159,-4.9663,-4.9658,-4.9654,0,-4.8496,-4.8715,-4.8681,-4.8894,-4.8993,-4.8909,-4.9019,-4.9062,-4.9064,-4.9149,-4.915,-4.9247,-4.9147,-4.9176,-4.9265,-4.9272,-4.9417,-4.9251,-4.938,-4.9385,-4.9375,-4.9716,-4.9779,-5.0037,-4.9598,-4.9604,-4.9608,0,-4.8233,-4.8283,-4.8323,-4.8357,-4.8406,-4.8488,-4.8614,-4.8701,-4.876,-4.8814,-4.8921,-4.9054,-4.8986,-4.9033,-4.9003,-4.9097,-4.9317,-4.9011,-4.9012,-4.9072,-4.9566,-4.9626,-4.9669,-4.9277,-4.9283,-4.9289,-4.9563,0,-4.7873,-4.7979,-4.8085,-4.8161,-4.822,-4.835,-4.833,-4.8395,-4.836,-4.8359,-4.8513,-4.8543,-4.8633,-4.8674,-4.8641,-4.8861,-4.8823,-4.8748,-4.8627,-4.8849,-4.8939,-4.8976,-4.8494,-4.849,-4.8487,-4.8484,0,0,-4.7557,-4.7708,-4.7666,-4.7786,-4.7834,-4.7745,-4.7887,-4.7923,-4.8,-4.8036,-4.7966,-4.8161,-4.8189,-4.838,-4.8447,-4.8481,-4.852,-4.8444,-4.8742,-4.8771,-4.8797,-4.8894,-4.8932,-4.8479,-4.8477,-4.8476,-4.8475,0,-4.7422,-4.7449,-4.7588,-4.7623,-4.7674,-4.7665,-4.7699,-4.7734,-4.774,-4.7889,-4.7817,-4.7906,-4.8062,-4.8103,-4.8144,-4.8418,-4.8361,-4.8446,-4.8603,-4.8711,-4.8744,-4.8773,-4.8875,-4.8912,-4.8468,-4.8468,-4.8468,0,-4.7162,-4.7187,-4.7251,-4.7354,-4.7386,-4.7489,-4.7355,-4.7469,-4.7546,-4.7444,-4.7595,-4.7609,-4.7661,-4.7842,-4.7922,-4.7862,-4.8217,-4.8099,-4.8118,-4.8129,-4.8233,-4.8272,-4.8308,-4.7844,-4.7842,-4.784,0,0,-4.7049,-4.7146,-4.7162,-4.7323,-4.7349,-4.7338,-4.739,-4.7361,-4.7408,-4.7427,-4.7445,-4.7494,-4.7584,-4.7645,-4.7728,-4.7928,-4.7938,-4.8023,-4.8053,-4.8077,-4.81,-4.8211,-4.825,-4.7832,-4.7832,-4.7832,0,0,-4.6996,-4.702,-4.6976,-4.716,-4.7207,-4.7234,-4.7334,-4.7281,-4.7354,-4.7337,-4.7294,-4.7305,-4.7473,-4.7491,-4.7387,-4.7686,-4.7565,-4.7589,-4.7669,-4.7706,-4.7735,-4.7729,-4.7257,0,0,0,0,0,-4.6848,-4.7016,-4.6976,-4.7004,-4.7133,-4.7256,-4.7272,-4.724,-4.7155,-4.7236,-4.7242,-4.7175,-4.7426,-4.7334,-4.7363,-4.748,-4.773,-4.7749,-4.7765,-4.7916,-4.7954,-4.7987,0,0,0,0,0,0,-4.6858,-4.6892,-4.6971,-4.7006,-4.7034,-4.7249,-4.71,-4.7095,-4.7146,-4.7131,-4.7176,-4.7176,-4.7152,-4.7317,-4.7343,-4.7455,-4.7248,-4.7738,-4.7753,-4.7767,-4.7929,-4.796,-4.7988,0,0,0,0,0,-4.6866,-4.6894,-4.711,-4.7003,-4.7028,-4.7025,-4.7093,-4.7088,-4.7127,-4.7137,-4.7136,-4.7098,-4.7156,-4.7176,-4.7332,-4.7444,-4.7229,-4.7239,-4.7747,-4.776,-4.777,-4.7944,0,0,0,0,0,0,-4.6873,-4.6891,-4.7114,-4.712,-4.6937,-4.7013,-4.7023,-4.7082,-4.7129,-4.7129,-4.7057,-4.7045,-4.7161,-4.7175,-4.7191,-4.7442,-4.7214,-4.7224,-4.7231,-4.7757,-4.7766,-4.7774,0,0,0,0,0,0,-4.6876,-4.6897,-4.7117,-4.7035,-4.7032,-4.7001,-4.7011,-4.7139,-4.7131,-4.7046,-4.7037,-4.7051,-4.7137,-4.7176,-4.7188,-4.7389,-4.7203,-4.7212,-4.7219,-4.7223,-4.7764,-4.7772,0,0,0,0,0,0,-4.6884,-4.6902,-4.7033,-4.7031,-4.7028,-4.7098,-4.7114,-4.7249,-4.706,-4.7045,-4.7042,-4.7034,-4.714,-4.7151,-4.7186,-4.7382,-4.7387,-4.7203,-4.7209,-4.7214,-4.7217,0,0,0,0,0,0,0,-4.6891,-4.6777,-4.7075,-4.7027,-4.7024,-4.718,-4.7182,-4.7183,-4.7058,-4.7051,-4.7044,-4.7037,-4.7147,-4.7157,-4.7168,-4.7377,0,0,-4.7202,-4.7207,0,0,0,0,0,0,0,0,-4.6769,-4.6775,-4.7076,-4.7077,-4.7078,-4.718,-4.7182,-4.7183,-4.7057,-4.7051,-4.7045,-4.704,-4.715,-4.7158,-4.7167,0,0,0,0,0,0,0,0,0,0,0,0,0,0,0,-4.7076,-4.7077,0,-4.718,-4.7182,-4.7183,-4.7056,-4.7051,-4.7046,-4.7042,-4.7152,-4.7159,-4.7166,0,0,0,0,0,0,0,0,0,0,0,0,0,0,0,0,0,0,0,0,0,0,0,0,0,0,0,0,0,0,0,0,0,0,0,0,0,0,0,0,0,0,0,0,0,0,0,0,0,0,0,0,0,0,0,0,0,0,0,0,0,0,0,0,0,0,0,0,0]}],[{"header":{"parameterUnit":"kt","parameterCategory":2,"dx":1,"dy":1,"la1":30.253999710083008,"la2":30.299108505249023,"lo1":-89.0895004272461,"lo2":-89.04439544677734,"nx":28,"ny":28,"refTime":"2022-10-17T21:00:00:Z","depth":0,"parameterNumber":2,"parameterNumberName":"V-component_of_WINDS"},"data":[-11.2534,-11.269,-11.2693,-11.287,-11.2901,-11.3021,-11.3064,-11.3119,-11.3163,-11.3303,-11.3384,-11.3398,-11.3439,-11.3533,-11.3617,-11.3621,-11.3657,-11.3711,-11.3706,-11.3463,-11.3429,-11.3397,-11.3362,-11.3719,-11.372,-11.3958,-11.396,-11.3962,-11.2358,-11.2392,-11.2487,-11.2579,-11.2659,-11.2608,-11.2676,-11.2745,-11.2853,-11.2907,-11.2986,-11.3108,-11.3204,-11.3225,-11.3316,-11.3385,-11.3364,-11.341,-11.3404,-11.3411,-11.3151,-11.3114,-11.3425,-11.3425,-11.3425,-11.3425,-11.3425,-11.3425,-11.2038,-11.2131,-11.2188,-11.229,-11.2336,-11.2397,-11.2484,-11.2501,-11.2591,-11.2688,-11.2669,-11.2789,-11.2841,-11.2948,-11.2983,-11.3075,-11.3024,-11.3072,-11.3084,-11.3096,-11.3111,-11.2769,-11.3089,-11.3088,-11.3088,-11.3087,-11.3086,0,-11.1803,-11.1799,-11.1889,-11.198,-11.2054,-11.2123,-11.2186,-11.224,-11.2225,-11.2299,-11.2406,-11.2467,-11.2586,-11.2684,-11.2767,-11.2793,-11.2743,-11.2737,-11.2771,-11.2783,-11.2784,-11.2785,-11.2362,-11.2728,-11.2725,-11.2722,-11.2721,-11.272,-11.148,-11.1588,-11.1647,-11.171,-11.1745,-11.1846,-11.1906,-11.1885,-11.1948,-11.202,-11.2101,-11.22,-11.2278,-11.2445,-11.2458,-11.2545,-11.2522,-11.2662,-11.2534,-11.2542,-11.2524,-11.2518,-11.2529,-11.2687,-11.2691,-11.2694,-11.2697,0,-11.1298,-11.1299,-11.1466,-11.1512,-11.1527,-11.164,-11.1678,-11.1767,-11.1772,-11.1895,-11.1923,-11.1929,-11.2032,-11.2023,-11.2137,-11.2128,-11.2311,-11.2285,-11.2294,-11.2288,-11.2413,-11.2401,-11.2818,-11.2871,-11.25,-11.2503,-11.2506,0,-11.1023,-11.1164,-11.1157,-11.1253,-11.1409,-11.1384,-11.1538,-11.1557,-11.1601,-11.1698,-11.1642,-11.1733,-11.1706,-11.1796,-11.1783,-11.193,-11.1951,-11.1953,-11.1948,-11.1959,-11.1959,-11.199,-11.1973,-11.1932,-11.193,-11.1928,-11.1926,0,-11.0738,-11.0899,-11.1055,-11.1091,-11.1153,-11.1227,-11.1255,-11.1304,-11.1361,-11.1434,-11.1471,-11.1556,-11.1603,-11.1669,-11.1652,-11.1566,-11.1831,-11.1709,-11.1833,-11.1834,-11.1892,-11.1889,-11.226,-11.1924,-11.1923,-11.1922,-11.1921,0,-11.0515,-11.0593,-11.0819,-11.0869,-11.0912,-11.1014,-11.1098,-11.1183,-11.1238,-11.1237,-11.1293,-11.1253,-11.1381,-11.1261,-11.1435,-11.1328,-11.1377,-11.139,-11.1399,-11.1409,-11.1276,-11.1487,-11.1842,-11.1879,-11.142,-11.1416,-11.1412,0,-11.0189,-11.0418,-11.0398,-11.0613,-11.0717,-11.0647,-11.0759,-11.081,-11.0818,-11.0905,-11.0913,-11.1011,-11.092,-11.0949,-11.1037,-11.1048,-11.1187,-11.1029,-11.1152,-11.1157,-11.1141,-11.1467,-11.1523,-11.1766,-11.1358,-11.1364,-11.1368,0,-10.9937,-11.0012,-11.0051,-11.0092,-11.0156,-11.0241,-11.037,-11.0463,-11.0523,-11.0585,-11.0691,-11.0828,-11.0765,-11.0814,-11.0789,-11.0881,-11.1092,-11.08,-11.08,-11.0853,-11.133,-11.1382,-11.1423,-11.1055,-11.1061,-11.1067,-11.1325,0,-10.9601,-10.9714,-10.9821,-10.9911,-10.9975,-11.0109,-11.01,-11.0169,-11.014,-11.0145,-11.03,-11.0337,-11.0429,-11.0471,-11.0443,-11.0657,-11.0619,-11.0549,-11.0431,-11.0646,-11.073,-11.0765,-11.0306,-11.0302,-11.0299,-11.0297,0,0,-10.9289,-10.9451,-10.9424,-10.9549,-10.9602,-10.9527,-10.967,-10.9712,-10.9798,-10.9835,-10.977,-10.9969,-11.0001,-11.019,-11.0256,-11.0293,-11.0329,-11.0254,-11.0544,-11.0571,-11.0597,-11.0688,-11.0724,-11.0292,-11.029,-11.0289,-11.0288,0,-10.9165,-10.9204,-10.9346,-10.9389,-10.9452,-10.9451,-10.9485,-10.9533,-10.9542,-10.9694,-10.9628,-10.9719,-10.9878,-10.9921,-10.9963,-11.0232,-11.0175,-11.026,-11.0409,-11.0514,-11.0545,-11.0573,-11.0669,-11.0704,-11.0281,-11.0282,-11.0282,0,-10.8915,-10.8951,-10.9019,-10.9137,-10.9176,-10.9283,-10.9158,-10.9277,-10.9355,-10.9263,-10.9414,-10.9433,-10.9488,-10.9668,-10.9748,-10.969,-11.0036,-10.9924,-10.9942,-10.995,-11.0051,-11.0089,-11.0123,-10.9677,-10.9675,-10.9674,0,0,-10.8808,-10.8913,-10.8944,-10.9109,-10.9139,-10.9139,-10.9194,-10.9171,-10.9224,-10.9246,-10.9268,-10.9321,-10.9412,-10.9473,-10.9559,-10.9757,-10.9766,-10.985,-10.9878,-10.9902,-10.9923,-11.0029,-11.0067,-10.9666,-10.9666,-10.9665,0,0,-10.8756,-10.8799,-10.8761,-10.8952,-10.9007,-10.9046,-10.9147,-10.91,-10.9176,-10.9159,-10.9123,-10.9135,-10.9302,-10.9322,-10.9221,-10.9516,-10.9399,-10.9423,-10.9497,-10.9533,-10.9561,-10.9552,-10.9095,0,0,0,0,0,-10.8624,-10.8794,-10.8759,-10.879,-10.8936,-10.9066,-10.9084,-10.906,-10.8978,-10.9058,-10.9069,-10.9005,-10.926,-10.9169,-10.9199,-10.9312,-10.9566,-10.9584,-10.9601,-10.9742,-10.978,-10.9812,0,0,0,0,0,0,-10.8636,-10.8674,-10.8755,-10.8802,-10.8834,-10.906,-10.8916,-10.8914,-10.8969,-10.8955,-10.9005,-10.9006,-10.8986,-10.9152,-10.9179,-10.9287,-10.9086,-10.9573,-10.9588,-10.9602,-10.9755,-10.9786,-10.9812,0,0,0,0,0,-10.8645,-10.8675,-10.8917,-10.8799,-10.8827,-10.8835,-10.891,-10.8907,-10.8948,-10.8965,-10.8965,-10.8925,-10.899,-10.901,-10.9168,-10.9276,-10.9067,-10.9077,-10.9583,-10.9595,-10.9605,-10.977,0,0,0,0,0,0,-10.8652,-10.8673,-10.8922,-10.8929,-10.8733,-10.8822,-10.8835,-10.8901,-10.8955,-10.8956,-10.8883,-10.8871,-10.8994,-10.9009,-10.9026,-10.9274,-10.9051,-10.9062,-10.9068,-10.9592,-10.9601,-10.9609,0,0,0,0,0,0,-10.8656,-10.868,-10.8925,-10.8844,-10.8842,-10.881,-10.8822,-10.8951,-10.8956,-10.8869,-10.886,-10.8877,-10.8968,-10.901,-10.9022,-10.9225,-10.904,-10.9049,-10.9056,-10.9061,-10.96,-10.9607,0,0,0,0,0,0,-10.8666,-10.8686,-10.8841,-10.884,-10.8838,-10.892,-10.8923,-10.9073,-10.8889,-10.8867,-10.8872,-10.8864,-10.8971,-10.8983,-10.902,-10.9218,-10.9223,-10.904,-10.9047,-10.9051,-10.9055,0,0,0,0,0,0,0,-10.8673,-10.8545,-10.8877,-10.8837,-10.8835,-10.8999,-10.9001,-10.9003,-10.8887,-10.888,-10.8874,-10.8867,-10.8983,-10.8994,-10.9005,-10.9213,0,0,-10.9039,-10.9044,0,0,0,0,0,0,0,0,-10.8535,-10.8542,-10.8878,-10.8879,-10.8881,-10.9,-10.9001,-10.9003,-10.8886,-10.8881,-10.8875,-10.887,-10.8986,-10.8995,-10.9004,0,0,0,0,0,0,0,0,0,0,0,0,0,0,0,-10.8878,-10.8879,0,-10.9,-10.9001,-10.9003,-10.8885,-10.8881,-10.8876,-10.8872,-10.8988,-10.8996,-10.9003,0,0,0,0,0,0,0,0,0,0,0,0,0,0,0,0,0,0,0,0,0,0,0,0,0,0,0,0,0,0,0,0,0,0,0,0,0,0,0,0,0,0,0,0,0,0,0,0,0,0,0,0,0,0,0,0,0,0,0,0,0,0,0,0,0,0,0,0,0]}]]]